This is the latest recevied weather packets stored in our database for station/object DK7LH-6. If no packets are shown the sender has not sent any weather packets the latest 10 day(s).
| Time | Temp. | Humidity | Pressure | Rain* | Wind** | Luminosity | Snow |
|---|---|---|---|---|---|---|---|
| 1777999558 | 11.67° C | 87% | 1008.8 hPa | 0 mm | - | 31 W/m² | - |
| 1777998628 | 11.67° C | 86% | 1008.9 hPa | 0 mm | - | 51 W/m² | - |
| 1777997760 | 11.67° C | 86% | 1008.9 hPa | 0 mm | - | 42 W/m² | - |
| 1777996830 | 11.67° C | 85% | 1009 hPa | 0 mm | - | 52 W/m² | - |
| 1777995962 | 12.22° C | 83% | 1009 hPa | 0 mm | - | 50 W/m² | - |
| 1777995032 | 12.22° C | 81% | 1009.3 hPa | 0 mm | - | 48 W/m² | - |
| 1777994165 | 12.22° C | 81% | 1009.4 hPa | 0 mm | - | 56 W/m² | - |
| 1777993234 | 12.22° C | 80% | 1009.4 hPa | 0 mm | - | 51 W/m² | - |
| 1777992366 | 12.22° C | 80% | 1009.6 hPa | 0 mm | - | 64 W/m² | - |
| 1777991436 | 12.78° C | 80% | 1009.5 hPa | 0 mm | - | 67 W/m² | - |
| 1777990570 | 13.33° C | 79% | 1009.6 hPa | 0 mm | - | 68 W/m² | - |
| 1777989638 | 13.33° C | 79% | 1009.7 hPa | 0 mm | - | 139 W/m² | - |
| 1777988770 | 13.33° C | 77% | 1009.8 hPa | 0 mm | - | 131 W/m² | - |
| 1777987871 | 12.78° C | 78% | 1009.9 hPa | 0 mm | - | 165 W/m² | - |
| 1777986941 | 13.33° C | 78% | 1009.9 hPa | 0 mm | - | 217 W/m² | - |
| 1777986073 | 12.22° C | 79% | 1010 hPa | 0 mm | - | 198 W/m² | - |
| 1777985143 | 12.22° C | 78% | 1010.2 hPa | 0 mm | - | 201 W/m² | - |
| 1777984276 | 12.22° C | 79% | 1010.3 hPa | 0 mm | - | 184 W/m² | - |
| 1777983346 | 12.22° C | 78% | 1010.3 hPa | 0 mm | - | 216 W/m² | - |
| 1777982477 | 11.67° C | 79% | 1010.3 hPa | 0 mm | - | 180 W/m² | - |
| 1777981547 | 11.67° C | 78% | 1010.3 hPa | 0 mm | - | 208 W/m² | - |
| 1777980617 | 11.67° C | 79% | 1010.3 hPa | 0 mm | - | 170 W/m² | - |
| 1777979749 | 11.11° C | 79% | 1010.5 hPa | 0 mm | - | 164 W/m² | - |
| 1777978819 | 11.11° C | 80% | 1010.7 hPa | 0 mm | - | 108 W/m² | - |
| 1777977951 | 10.56° C | 80% | 1010.8 hPa | 0 mm | - | 106 W/m² | - |
* Rain latest hour (hover to see other rain measurements)
** Current wind speed in m/s (hover to see current wind gust speed)